www.pogodaiklimat.ru

ПОГОДА в Стиглере, OK

  • Прогноз погоды в Стиглере
  • Монитор погоды в Стиглере
  • Климат в Стиглере

АРХИВ ПОГОДЫ в Стиглере

Время (UTC), дата Ветер
(напр.,м/с)
 
Видим.   Явления Облачность Т
(С)
Тd
(С)
f
(%)
Тe
(С)
Тes
(С)
Комфортность

P
(гПа)

Po
(гПа)
Тmin
(С)
Tmax
(С)
R
(мм)
SD
(см)
19:35 25.03 С  5
{7} 
16 км    10/10 1200 м  +17.0  +3.0  39  +16  +16      1016.5         
19:55 25.03 С  6
{8} 
16 км    8/8 1200 м  +16.0  +3.0  42  +15  +16      1016.5         
20:15 25.03 С  5
{7} 
16 км    10/10 1350 м  +17.0  +3.0  39  +16  +16      1016.5         
20:35 25.03 С  6
{8} 
16 км    10/10 1350 м  +16.0  +3.0  42  +15  +15      1016.5         
20:55 25.03 С  16 км    10/10 1350 м  +16.0  +4.0  45  +15  +15      1016.8         
21:15 25.03 С  16 км    10/10 1290 м  +15.0  +4.0  48  +13  +13      1016.8         
21:35 25.03 С  6
{8} 
16 км    10/10 1290 м  +15.0  +5.0  51  +13  +13      1017.1         
21:55 25.03 С  16 км    10/10 1290 м  +14.0  +5.0  55  +12  +12      1017.1         
22:15 25.03 С  6
{8} 
16 км    10/10 1350 м  +14.0  +4.0  51  +12  +12      1017.5         
22:35 25.03 С  16 км    10/10 1410 м  +14.0  +4.0  51  +12  +12      1017.5         
22:55 25.03 С  16 км    10/10 1350 м  +14.0  +4.0  51  +12  +12      1017.5         
23:15 25.03 С  16 км    10/10 1290 м  +14.0  +4.0  51  +12  +12      1017.5         
23:35 25.03 С  16 км    10/10 1290 м  +14.0  +5.0  55  +12  +12      1017.5         
23:55 25.03 С  16 км    10/10 1230 м  +13.0  +5.0  58  +11  +11      1017.5         
00:15 26.03 С  16 км    10/10 1230 м  +13.0  +5.0  58  +11  +11      1017.8         
00:35 26.03 С  16 км    10/10 1170 м  +13.0  +5.0  58  +11  +11      1017.8         
00:55 26.03 СВ  16 км    10/10 1170 м  +13.0  +4.0  54  +11  +11      1018.2         
01:15 26.03 С  16 км    10/10 1110 м  +13.0  +4.0  54  +11  +11      1018.5         
01:35 26.03 С  16 км    10/10 1110 м  +13.0  +4.0  54  +12  +12      1018.8         
01:55 26.03 С  16 км    10/10 1110 м  +13.0  +5.0  58  +12  +12      1019.2         
02:15 26.03 С  16 км    10/10 1110 м  +13.0  +5.0  58  +12  +12      1019.5         
02:35 26.03 С  16 км    10/10 1110 м  +12.0  +5.0  62  +10  +10      1019.8         
02:55 26.03 С  16 км    10/10 1110 м  +12.0  +5.0  62  +11  +11      1020.2         
03:15 26.03 С  16 км    10/10 1170 м  +12.0  +5.0  62  +11  +11      1020.2         
03:35 26.03 С  16 км    10/10 1170 м  +12.0  +6.0  67  +11  +11      1020.2         
03:55 26.03 С  16 км    10/10 1110 м  +12.0  +5.0  62  +10  +10      1020.2         
04:15 26.03 СВ  16 км    10/10 1110 м  +12.0  +5.0  62  +11  +11      1020.2         
04:35 26.03 СВ  16 км    10/10 1170 м  +12.0  +6.0  67  +11  +11      1019.8         
04:55 26.03 СВ  16 км    10/10 1110 м  +12.0  +6.0  67  +11  +11      1019.8         
05:15 26.03 С  16 км    8/8 1050 м  +10.0  +6.0  76  +9  +9      1019.8         
05:35 26.03 С  16 км    5/5 1050 м  +10.0  +6.0  76  +8  +8      1019.5         
05:55 26.03     16 км    8/8 990 м  +9.0  +6.0  81  +8  +8      1019.5         
06:15 26.03     16 км    10/10 840 м  +9.0  +6.0  81  +8  +8      1019.5         
06:35 26.03     16 км    8/8 930 м  +9.0  +5.0  76  +8  +8      1019.8         
06:55 26.03     16 км    2/2 930 м  +8.0  +5.0  81  +7  +7      1019.8         
07:15 26.03 СВ  16 км    2/2 990 м  +8.0  +5.0  81  +7  +7      1019.8         
07:35 26.03   16 км    ясно  +7.0  +5.0  87  +6  +6      1019.8         
07:55 26.03   16 км    ясно  +8.0  +7.0  93  +7  +7      1019.8         
08:15 26.03   16 км    ясно  +6.0  +4.0  87  +5  +5      1019.8         
08:35 26.03   16 км    ясно  +7.0  +6.0  93  +6  +6      1019.8         
08:55 26.03   16 км    ясно  +6.0  +6.0  100  +5  +5      1019.5         
09:15 26.03 В  16 км    ясно  +5.0  +5.0  100  +3  +3      1019.5         
09:35 26.03     16 км    ясно  +5.0  +5.0  100  +4  +4      1019.8         
09:55 26.03     16 км    ясно  +5.0  +5.0  100  +4  +4      1020.2         
10:15 26.03     16 км    ясно  +3.0  +3.0  100  +2  +2      1020.2         
10:35 26.03     4 км  дымка  ясно  +4.0  +4.0  100  +3  +3      1020.5         
10:55 26.03 ЮЗ  16 км    ясно  +4.0  +4.0  100  +1  +1      1020.8         
11:15 26.03   1 км  дымка  ?/?  +3.0  +3.0  100  +2  +2      1021.2         

 

Местоположение метеостанции Stigler Regional Airport: широта 35.2891 долгота -95.0939 высота над уровнем моря 56 м.

В архиве по умолчанию представлена погода в Стиглере за последние 1-2 суток. Обновление информации о фактической погоде в базе происходит ежечасно! Архивные данные за месяц целиком и за предыдущие месяцы Вы можете получить, выбрав интересующий диапазон дат из раскрывающегося списка и нажав кнопку "Ввод!".

Внимание! Архив погоды МЕТАР в базе сайта хранится не более 60 дней. Нет смысла пытаться выбрать более раннюю дату.

Внимание! Время в таблицах - всемирное. Для получения местного времени необходимо прибавить поправку, которая в Стиглере равна -6 ч.

Ветер - указаны скорость ветра в м/с и направление, откуда дует ветер: С - северный, СВ - северо-восточный, В - восточный, ЮВ - юго-восточный, Ю - южный, ЮЗ - юго-западный, З - западный, СЗ - северо-западный.
Видимость - горизонтальная дальность видимости в метрах или километрах. При видимости от 1 до 10 км при отсутствии осадков обычно наблюдается дымка, при ухудшении видимости до 1 км и менее - туман. В сухую погоду видимость может ухудшаться дымом, пылью или мглою.
Атмосферные явления - указаны явления, наблюдавшиеся в указанный момент времени.
Облачность - указаны через наклонную черту верхняя и нижняя облачность в баллах и высота нижней границы облаков в метрах. Внимание: облачность, как и прочие метеорологические величины в США измеряются автоматическими метеостанциями. Указанные значения в баллах носят условный характер и показывают процент времени, в течение которого, в среднем, лазерный луч высотомера отражался от облаков обратно.
T - Температура воздуха - температура, измеренная на высоте 2 м над землей.
Td - Температура точки росы - температура, при понижении до которой содержащийся в воздухе водяной пар достигнет насыщения.
f - Относительная влажность воздуха - влажноcть воздуха, измеренная на высоте 2 м над землей.
Te - Эффективная температура - температура, которую ощущает одетый по сезону человек в тени. Характеристика душности погоды. При расчете учитывается влияние влажности воздуха и скорости ветра на теплоощущения человека.
Tes - Эффективная температура на солнце - температура, которую ощущает человек, с поправкой на солнечный нагрев. Характеристика знойности погоды. Зависит от высоты солнца над горизонтом, облачности и скорости ветра. Ночью, в пасмурную погоду, а также при ветре 12 м/с и более поправка равна нулю.
P - Атмосферное давление - приведенное к уровню моря атмосферное давление.
Po - Атмосферное давление - измеренное на уровне метеостанции атмосферное давление.
Tmin - Минимальная температура - минимум температуры воздуха на высоте 2 м над землей.
Tmax - Максимальная температура - максимум температуры воздуха на высоте 2 м над землей.
R - Количество осадков - Количество выпавших осадков за 3 или 6 часов, мм.
SD - Снежный покров - Высота снежного покрова, см.